[[{"header":{"parameterUnit":"m.s-1","parameterCategory":1,"la1":30.2991,"la2":30.254,"lo1":-89.0895,"lo2":-89.0444,"dy":0.0017,"dx":0.0017,"nx":28,"ny":28,"refTime":"2024-08-21T21:00:00:Z","depth":0,"parameterNumber":2,"parameterNumberName":"U-component_of_WINDS"},"data":[0,0,0,0,0,0,0,0,0,0,0,0,0,0,0,0,0,0,0,0,0,0,0,0,0,0,0,0,0,0,0,0,0,0,0,0,0,0,0,0,0,0,0,0,0,0,0,0,0,0,0,0,0,0,0,0,0,0,-1.2347,-1.2347,0,-1.2325,-1.2325,-1.2325,-1.2284,-1.2283,-1.2282,-1.2281,-1.226,-1.226,-1.226,0,0,0,0,0,0,0,0,0,0,0,0,0,-1.2355,-1.2355,-1.2347,-1.2347,-1.2347,-1.2325,-1.2325,-1.2325,-1.2284,-1.2283,-1.2282,-1.2281,-1.226,-1.226,-1.226,0,0,0,0,0,0,0,0,0,0,0,0,0,-1.2344,-1.2355,-1.2347,-1.2324,-1.2321,-1.2325,-1.2325,-1.2324,-1.2284,-1.2283,-1.2282,-1.228,-1.226,-1.226,-1.226,-1.2286,0,0,-1.2261,-1.2261,0,0,0,0,0,0,0,0,-1.2345,-1.2344,-1.2327,-1.2325,-1.2323,-1.2306,-1.232,-1.2312,-1.2284,-1.2298,-1.2281,-1.228,-1.2276,-1.2275,-1.2274,-1.2285,-1.2284,-1.2261,-1.2261,-1.2262,-1.2262,0,0,0,0,0,0,0,-1.2346,-1.2345,-1.2338,-1.2327,-1.2324,-1.2315,-1.2312,-1.2318,-1.2294,-1.2297,-1.2294,-1.2292,-1.2275,-1.2274,-1.2273,-1.2284,-1.2261,-1.2262,-1.2262,-1.2262,-1.2316,-1.2317,0,0,0,0,0,0,-1.235,-1.2346,-1.2339,-1.2338,-1.2331,-1.2315,-1.2312,-1.2312,-1.2294,-1.229,-1.2293,-1.229,-1.2274,-1.2273,-1.2272,-1.2301,-1.2262,-1.2262,-1.2262,-1.2315,-1.2316,-1.2318,0,0,0,0,0,0,-1.235,-1.235,-1.234,-1.2341,-1.2339,-1.2316,-1.2317,-1.2313,-1.2311,-1.2291,-1.2287,-1.2296,-1.2273,-1.2272,-1.2283,-1.23,-1.2262,-1.2262,-1.2313,-1.2315,-1.2317,-1.236,0,0,0,0,0,0,-1.235,-1.235,-1.2359,-1.2341,-1.2339,-1.2351,-1.2318,-1.2313,-1.2312,-1.2308,-1.2293,-1.2289,-1.2272,-1.2283,-1.2283,-1.23,-1.2262,-1.2312,-1.2314,-1.2316,-1.2357,-1.2363,-1.2369,0,0,0,0,0,-1.2351,-1.2372,-1.236,-1.2359,-1.235,-1.2352,-1.2351,-1.233,-1.2313,-1.2323,-1.231,-1.2289,-1.2298,-1.2284,-1.2284,-1.2301,-1.231,-1.2313,-1.2316,-1.2355,-1.2362,-1.2368,0,0,0,0,0,0,-1.2393,-1.2369,-1.2355,-1.2371,-1.2364,-1.2345,-1.2356,-1.2339,-1.2336,-1.2333,-1.2307,-1.2304,-1.2319,-1.2311,-1.2296,-1.2326,-1.2301,-1.2304,-1.233,-1.2337,-1.2343,-1.2345,-1.2263,0,0,0,0,0,-1.2404,-1.2407,-1.2387,-1.2403,-1.24,-1.2379,-1.2379,-1.2364,-1.2355,-1.2352,-1.234,-1.2332,-1.2334,-1.2335,-1.2335,-1.2356,-1.2352,-1.2367,-1.2373,-1.2378,-1.2381,-1.2392,-1.2399,-1.2327,-1.2327,-1.2327,0,0,-1.2427,-1.2414,-1.2418,-1.2411,-1.2403,-1.2408,-1.2376,-1.2382,-1.2386,-1.2353,-1.2363,-1.2354,-1.2344,-1.2361,-1.2367,-1.2355,-1.24,-1.2382,-1.2386,-1.2386,-1.2396,-1.2403,-1.2409,-1.2329,-1.2329,-1.2328,0,0,-1.2471,-1.2462,-1.2475,-1.2468,-1.2457,-1.2442,-1.2446,-1.2429,-1.2422,-1.2432,-1.2407,-1.2411,-1.2413,-1.2408,-1.2405,-1.2448,-1.243,-1.2449,-1.2479,-1.249,-1.2496,-1.2501,-1.2517,-1.2523,-1.2452,-1.2452,-1.2452,0,-1.2501,-1.2507,-1.2483,-1.2491,-1.2489,-1.2459,-1.2472,-1.2467,-1.2457,-1.2456,-1.2442,-1.2444,-1.2436,-1.2451,-1.2462,-1.246,-1.2464,-1.245,-1.2497,-1.2502,-1.2506,-1.2521,-1.2527,-1.2454,-1.2454,-1.2454,-1.2453,0,-1.2545,-1.2549,-1.256,-1.2551,-1.255,-1.2561,-1.254,-1.2542,-1.2527,-1.2514,-1.2525,-1.2514,-1.2511,-1.2513,-1.2499,-1.2527,-1.2519,-1.2501,-1.2476,-1.2516,-1.2529,-1.2535,-1.2458,-1.2457,-1.2456,-1.2455,0,0,-1.2615,-1.2593,-1.2597,-1.2593,-1.2579,-1.2582,-1.2591,-1.2588,-1.2591,-1.2585,-1.2593,-1.2595,-1.2579,-1.2576,-1.2561,-1.2571,-1.2606,-1.2551,-1.2551,-1.2563,-1.2638,-1.2652,-1.2659,-1.2594,-1.2595,-1.2596,-1.2639,0,-1.2656,-1.2671,-1.2651,-1.267,-1.2674,-1.2646,-1.2654,-1.2647,-1.2636,-1.2638,-1.2625,-1.2628,-1.2606,-1.2604,-1.2612,-1.26,-1.2621,-1.2597,-1.2602,-1.2602,-1.2606,-1.2666,-1.2681,-1.2722,-1.2644,-1.2645,-1.2645,0,-1.2707,-1.2703,-1.2723,-1.2708,-1.2709,-1.2717,-1.2713,-1.2715,-1.2707,-1.2698,-1.2695,-1.2676,-1.2685,-1.2661,-1.2673,-1.2657,-1.2658,-1.2652,-1.2653,-1.2654,-1.2627,-1.2669,-1.2734,-1.2741,-1.2653,-1.2653,-1.2652,0,-1.2757,-1.2757,-1.2769,-1.2766,-1.2749,-1.2755,-1.2748,-1.2738,-1.2738,-1.2735,-1.2735,-1.2733,-1.2732,-1.2731,-1.2713,-1.2696,-1.2728,-1.2702,-1.2722,-1.2722,-1.273,-1.273,-1.2798,-1.2729,-1.2729,-1.2729,-1.2729,0,-1.2806,-1.282,-1.2792,-1.2799,-1.2813,-1.279,-1.2805,-1.2796,-1.2787,-1.2793,-1.2768,-1.2774,-1.2749,-1.2753,-1.2739,-1.2752,-1.2751,-1.2745,-1.2741,-1.2748,-1.2749,-1.2748,-1.2745,-1.2731,-1.2731,-1.273,-1.273,0,-1.2865,-1.2847,-1.2858,-1.2841,-1.2837,-1.2848,-1.2834,-1.284,-1.2828,-1.2835,-1.2835,-1.2816,-1.2819,-1.28,-1.28,-1.279,-1.2811,-1.2801,-1.2814,-1.2811,-1.2833,-1.2831,-1.2903,-1.2912,-1.2837,-1.2838,-1.2839,0,-1.2898,-1.2908,-1.2891,-1.2893,-1.2888,-1.2891,-1.2891,-1.2868,-1.2869,-1.286,-1.2868,-1.2869,-1.2869,-1.2875,-1.2861,-1.286,-1.2852,-1.2877,-1.2852,-1.2858,-1.2853,-1.2853,-1.2855,-1.2883,-1.2884,-1.2884,-1.2885,0,-1.2959,-1.2949,-1.2949,-1.2947,-1.2947,-1.2944,-1.2939,-1.2943,-1.2918,-1.2921,-1.2923,-1.2923,-1.2923,-1.2924,-1.2921,-1.2915,-1.2896,-1.2893,-1.2898,-1.2905,-1.2912,-1.2909,-1.2829,-1.2892,-1.2891,-1.289,-1.289,-1.289,-1.3006,-1.3013,-1.3003,-1.3005,-1.2999,-1.2995,-1.3001,-1.2989,-1.2991,-1.2988,-1.2975,-1.298,-1.2972,-1.2966,-1.2962,-1.2966,-1.2954,-1.2961,-1.2963,-1.2965,-1.2969,-1.2911,-1.2965,-1.2965,-1.2965,-1.2965,-1.2964,0,-1.3066,-1.3058,-1.306,-1.3054,-1.3056,-1.3037,-1.3032,-1.3034,-1.3039,-1.3033,-1.3033,-1.3036,-1.3038,-1.3024,-1.3024,-1.303,-1.3022,-1.3031,-1.303,-1.303,-1.2979,-1.2976,-1.3037,-1.3037,-1.3037,-1.3037,-1.3037,-1.3037,-1.3097,-1.311,-1.3099,-1.3108,-1.3101,-1.3105,-1.3104,-1.3101,-1.3095,-1.31,-1.3101,-1.3092,-1.3083,-1.3082,-1.3083,-1.3079,-1.3081,-1.3093,-1.3086,-1.304,-1.3033,-1.3026,-1.3023,-1.3093,-1.3093,-1.3136,-1.3137,-1.3137]},{"header":{"parameterUnit":"m.s-1","parameterCategory":1,"la1":30.2991,"la2":30.254,"lo1":-89.0895,"lo2":-89.0444,"dy":0.0017,"dx":0.0017,"nx":28,"ny":28,"refTime":"2024-08-21T21:00:00:Z","depth":0,"parameterNumber":3,"parameterNumberName":"V-component_of_WINDS"},"data":[0,0,0,0,0,0,0,0,0,0,0,0,0,0,0,0,0,0,0,0,0,0,0,0,0,0,0,0,0,0,0,0,0,0,0,0,0,0,0,0,0,0,0,0,0,0,0,0,0,0,0,0,0,0,0,0,0,0,0.3689,0.369,0,0.3719,0.3719,0.372,0.375,0.375,0.375,0.3751,0.3779,0.378,0.378,0,0,0,0,0,0,0,0,0,0,0,0,0,0.3656,0.3657,0.3689,0.369,0.369,0.3719,0.3719,0.372,0.375,0.375,0.3751,0.3751,0.3779,0.3779,0.378,0,0,0,0,0,0,0,0,0,0,0,0,0,0.3677,0.3657,0.3689,0.3708,0.3711,0.3719,0.3719,0.372,0.3749,0.375,0.3751,0.3751,0.3779,0.3779,0.378,0.3771,0,0,0.3782,0.3782,0,0,0,0,0,0,0,0,0.3675,0.3678,0.3705,0.3707,0.3709,0.3731,0.3718,0.3737,0.3749,0.3735,0.3751,0.3752,0.3763,0.3765,0.3769,0.3773,0.3774,0.3782,0.3782,0.3782,0.3783,0,0,0,0,0,0,0,0.3674,0.3677,0.3701,0.3706,0.3708,0.3715,0.3718,0.3722,0.3745,0.3736,0.3738,0.3741,0.3764,0.3768,0.377,0.3774,0.3782,0.3782,0.3783,0.3783,0.377,0.377,0,0,0,0,0,0,0.367,0.3675,0.37,0.3702,0.3694,0.3715,0.3719,0.3724,0.3745,0.3749,0.3741,0.3743,0.3767,0.3769,0.3771,0.376,0.3782,0.3783,0.3783,0.3771,0.377,0.377,0,0,0,0,0,0,0.3669,0.3672,0.3699,0.3689,0.3693,0.3715,0.372,0.3724,0.3728,0.3749,0.3753,0.3741,0.3767,0.377,0.3771,0.3762,0.3783,0.3784,0.3772,0.3771,0.377,0.374,0,0,0,0,0,0,0.3668,0.3671,0.3669,0.3689,0.3694,0.3699,0.3719,0.3724,0.3729,0.3732,0.375,0.3753,0.3768,0.377,0.3771,0.3763,0.3784,0.3773,0.3771,0.377,0.3742,0.3738,0.3735,0,0,0,0,0,0.3667,0.3659,0.3669,0.3671,0.3691,0.3698,0.3701,0.3719,0.3728,0.3726,0.3738,0.3753,0.3763,0.3769,0.3771,0.3763,0.3773,0.3772,0.377,0.3744,0.3739,0.3735,0,0,0,0,0,0,0.3637,0.3662,0.3673,0.3672,0.3683,0.3703,0.37,0.3714,0.3721,0.3723,0.3745,0.3748,0.3746,0.3755,0.3762,0.3755,0.377,0.3769,0.3749,0.3745,0.3742,0.3739,0.3785,0,0,0,0,0,0.3631,0.3635,0.3657,0.3654,0.3659,0.3679,0.3683,0.3695,0.3707,0.3712,0.3725,0.3735,0.374,0.3743,0.375,0.3744,0.3747,0.3739,0.3736,0.3733,0.3731,0.3727,0.3723,0.3765,0.3765,0.3765,0,0,0.3617,0.3632,0.3633,0.3648,0.3658,0.3661,0.3682,0.3685,0.3687,0.3712,0.3713,0.3723,0.3736,0.3733,0.3732,0.374,0.3721,0.3731,0.3729,0.3728,0.3725,0.3721,0.3718,0.3764,0.3764,0.3764,0,0,0.3594,0.3606,0.3604,0.3613,0.3628,0.3641,0.3641,0.3659,0.3667,0.3668,0.3686,0.3689,0.3698,0.3706,0.3711,0.369,0.3702,0.3691,0.3673,0.3668,0.3665,0.3662,0.3653,0.365,0.369,0.369,0.369,0,0.3575,0.3581,0.3601,0.3603,0.3608,0.3631,0.3628,0.3636,0.3652,0.3655,0.3664,0.3675,0.3685,0.3684,0.3678,0.3682,0.3681,0.3689,0.3664,0.3662,0.3659,0.365,0.3647,0.3688,0.3688,0.3689,0.3689,0,0.3556,0.356,0.3557,0.3571,0.3577,0.3576,0.3595,0.3598,0.361,0.3621,0.3622,0.3635,0.3644,0.3644,0.3656,0.3644,0.3648,0.3661,0.3676,0.3653,0.3645,0.3642,0.3686,0.3686,0.3687,0.3687,0,0,0.3515,0.354,0.3538,0.3545,0.3562,0.3565,0.3565,0.3574,0.3575,0.3585,0.3584,0.3591,0.3602,0.3608,0.3621,0.3618,0.3597,0.363,0.3631,0.3622,0.3582,0.3572,0.3568,0.3607,0.3606,0.3606,0.3581,0,0.3493,0.3495,0.3512,0.3508,0.3511,0.3532,0.3532,0.3542,0.3553,0.3556,0.3568,0.3572,0.3587,0.3591,0.3588,0.36,0.3589,0.3603,0.3605,0.3604,0.3599,0.3564,0.3553,0.3529,0.3578,0.3577,0.3577,0,0.3468,0.3476,0.3473,0.3489,0.3491,0.349,0.3499,0.3502,0.3514,0.3522,0.3528,0.3542,0.3542,0.3557,0.3557,0.3565,0.3567,0.3573,0.3572,0.3572,0.3588,0.3561,0.3522,0.3517,0.3573,0.3573,0.3573,0,0.3436,0.3446,0.3445,0.345,0.3469,0.3468,0.3476,0.3488,0.3492,0.3499,0.3501,0.3509,0.3512,0.3517,0.3533,0.3543,0.3529,0.3546,0.3534,0.3534,0.3529,0.3529,0.3488,0.3533,0.3533,0.3534,0.3534,0,0.3409,0.3405,0.343,0.3429,0.3425,0.3445,0.3441,0.3451,0.3461,0.3462,0.3481,0.3481,0.3502,0.3504,0.3517,0.3513,0.3515,0.352,0.3523,0.3517,0.3516,0.3518,0.3519,0.3533,0.3533,0.3533,0.3533,0,0.3372,0.3389,0.3388,0.3407,0.3411,0.3407,0.3423,0.3422,0.3434,0.3434,0.3435,0.3454,0.3457,0.3473,0.348,0.3489,0.348,0.3487,0.3476,0.3477,0.3464,0.3464,0.3421,0.3415,0.3466,0.3465,0.3465,0,0.3353,0.335,0.3368,0.337,0.3377,0.338,0.3383,0.3403,0.3406,0.3418,0.3415,0.342,0.3424,0.3428,0.3442,0.3447,0.3453,0.3438,0.3454,0.3448,0.3451,0.345,0.3449,0.3434,0.3433,0.3433,0.3432,0,0.3316,0.3324,0.3329,0.3336,0.334,0.3347,0.3354,0.3354,0.3376,0.3378,0.3381,0.3385,0.3392,0.3395,0.3403,0.341,0.3424,0.3427,0.3424,0.3417,0.341,0.3412,0.3464,0.3428,0.3428,0.3428,0.3429,0.3429,0.3286,0.3284,0.3296,0.33,0.3308,0.3314,0.3314,0.3326,0.3329,0.3336,0.3348,0.3349,0.3359,0.3371,0.3377,0.3377,0.3386,0.3382,0.3381,0.3379,0.3375,0.3411,0.3379,0.3379,0.3379,0.338,0.338,0,0.3249,0.3257,0.3261,0.3271,0.3274,0.3287,0.3296,0.3297,0.3298,0.3307,0.3311,0.3314,0.3318,0.3332,0.3336,0.3334,0.334,0.3335,0.3334,0.3335,0.3369,0.337,0.3329,0.3329,0.3329,0.3329,0.3329,0.3329,0.3229,0.3226,0.3236,0.3236,0.3245,0.3247,0.325,0.3256,0.3263,0.3265,0.3268,0.3277,0.3288,0.3293,0.3297,0.33,0.33,0.3292,0.3297,0.3328,0.3333,0.3337,0.3338,0.3292,0.3292,0.3264,0.3263,0.3263]}]]